• Em Portugal
  • Lista de países
  • Para 7 dias
  • Temperatura da água
  • Mapas de satélite
  • Mapa do tempo
  • Widgets de tempo
  • user-avatar
    Iniciar Sessão

    Previsão horária em Gwatemala

    Hoje, 20 Outubro, Sexta-feira

    Tempo Temperatura Precipitação Vento Pressão Humidade
    00:00 +18°C° 0 mm 1 m/s 637 mmHg 90%
    01:00 +18°C° 0 mm 1 m/s 637 mmHg 90%
    02:00 +18°C° 0 mm 1 m/s 636 mmHg 90%
    03:00 +18°C° 0 mm 1 m/s 636 mmHg 90%
    04:00 +18°C° 0 mm 1 m/s 636 mmHg 90%
    05:00 +17°C° 0 mm 2 m/s 636 mmHg 90%
    06:00 +17°C° 0 mm 2 m/s 636 mmHg 90%
    07:00 +19°C° 0 mm 2 m/s 637 mmHg 83%
    08:00 +21°C° 0 mm 2 m/s 638 mmHg 77%
    09:00 +23°C° 0 mm 2 m/s 639 mmHg 70%
    10:00 +25°C° 0,1 mm 2 m/s 639 mmHg 66%
    11:00 +26°C° 0,1 mm 2 m/s 639 mmHg 62%
    12:00 +27°C° 0,1 mm 2 m/s 639 mmHg 58%
    13:00 +26°C° 0,8 mm 2 m/s 638 mmHg 63%
    14:00 +26°C° 0,8 mm 2 m/s 637 mmHg 67%
    15:00 +25°C° 0,8 mm 2 m/s 637 mmHg 71%
    16:00 +23°C° 0,4 mm 1 m/s 636 mmHg 77%
    17:00 +22°C° 0,4 mm 1 m/s 636 mmHg 83%
    18:00 +20°C° 0,4 mm 1 m/s 636 mmHg 89%
    19:00 +19°C° 0,1 mm 1 m/s 636 mmHg 90%
    20:00 +19°C° 0,1 mm 1 m/s 636 mmHg 91%
    21:00 +18°C° 0,1 mm 1 m/s 637 mmHg 93%
    22:00 +18°C° 0 mm 1 m/s 637 mmHg 92%
    23:00 +18°C° 0 mm 1 m/s 637 mmHg 92%

    Amanhã, 21 Outubro, Sábado

    Tempo Temperatura Precipitação Vento Pressão Humidade
    00:00 +17°C° 0 mm 2 m/s 637 mmHg 92%
    01:00 +17°C° 0 mm 2 m/s 636 mmHg 91%
    02:00 +17°C° 0 mm 2 m/s 636 mmHg 91%
    03:00 +17°C° 0 mm 2 m/s 635 mmHg 90%
    04:00 +17°C° 0 mm 2 m/s 635 mmHg 90%
    05:00 +18°C° 0 mm 1 m/s 636 mmHg 90%
    06:00 +16°C° 0 mm 1 m/s 636 mmHg 90%
    07:00 +19°C° 0 mm 1 m/s 637 mmHg 83%
    08:00 +21°C° 0 mm 1 m/s 638 mmHg 76%
    09:00 +23°C° 0 mm 1 m/s 639 mmHg 69%
    10:00 +25°C° 0 mm 1 m/s 639 mmHg 64%
    11:00 +26°C° 0 mm 2 m/s 639 mmHg 60%
    12:00 +27°C° 0 mm 2 m/s 639 mmHg 56%
    13:00 +27°C° 0,8 mm 2 m/s 638 mmHg 61%
    14:00 +26°C° 0,8 mm 2 m/s 637 mmHg 67%
    15:00 +25°C° 0,8 mm 1 m/s 636 mmHg 72%
    16:00 +23°C° 1,1 mm 1 m/s 636 mmHg 78%
    17:00 +22°C° 1,1 mm 1 m/s 636 mmHg 85%
    18:00 +20°C° 1,1 mm 1 m/s 636 mmHg 91%
    19:00 +19°C° 0,9 mm 1 m/s 636 mmHg 92%
    20:00 +19°C° 0,9 mm 1 m/s 637 mmHg 93%
    21:00 +18°C° 0,9 mm 1 m/s 637 mmHg 94%
    22:00 +18°C° 0,3 mm 1 m/s 637 mmHg 94%
    23:00 +18°C° 0,3 mm 1 m/s 637 mmHg 94%

    Depois de amanhã, 22 Outubro, Domingo

    Tempo Temperatura Precipitação Vento Pressão Humidade
    00:00 +18°C° 0,3 mm 1 m/s 637 mmHg 94%
    01:00 +18°C° 0,2 mm 1 m/s 636 mmHg 94%
    02:00 +18°C° 0,2 mm 1 m/s 636 mmHg 94%
    03:00 +18°C° 0,2 mm 1 m/s 636 mmHg 93%
    04:00 +18°C° 0,3 mm 1 m/s 636 mmHg 93%
    05:00 +18°C° 0,3 mm 1 m/s 636 mmHg 92%
    06:00 +18°C° 0,3 mm 1 m/s 636 mmHg 92%
    07:00 +19°C° 0,1 mm 1 m/s 637 mmHg 86%
    08:00 +21°C° 0,1 mm 1 m/s 638 mmHg 80%
    09:00 +23°C° 0,1 mm 1 m/s 639 mmHg 74%
    10:00 +23°C° 0,5 mm 1 m/s 639 mmHg 75%
    11:00 +24°C° 0,5 mm 1 m/s 639 mmHg 76%
    12:00 +24°C° 0,5 mm 1 m/s 639 mmHg 77%
    13:00 +24°C° 1,4 mm 1 m/s 638 mmHg 79%
    14:00 +24°C° 1,4 mm 1 m/s 637 mmHg 80%
    15:00 +23°C° 1,4 mm 1 m/s 636 mmHg 82%
    16:00 +22°C° 2,2 mm 1 m/s 636 mmHg 85%
    17:00 +21°C° 2,2 mm 1 m/s 636 mmHg 89%
    18:00 +20°C° 2,2 mm 1 m/s 636 mmHg 93%
    19:00 +20°C° 1,9 mm 1 m/s 637 mmHg 93%
    20:00 +19°C° 1,9 mm 1 m/s 637 mmHg 94%
    21:00 +19°C° 1,9 mm 1 m/s 638 mmHg 95%
    22:00 +19°C° 0,8 mm 1 m/s 638 mmHg 95%
    23:00 +19°C° 0,8 mm 1 m/s 637 mmHg 95%

    23 Outubro, Segunda-feira

    Tempo Temperatura Precipitação Vento Pressão Humidade
    00:00 +19°C° 0,8 mm 1 m/s 637 mmHg 96%
    01:00 +18°C° 0,3 mm 1 m/s 637 mmHg 95%
    02:00 +18°C° 0,3 mm 1 m/s 636 mmHg 95%
    03:00 +18°C° 0,3 mm 1 m/s 636 mmHg 95%
    04:00 +18°C° 0,1 mm 1 m/s 636 mmHg 94%
    05:00 +18°C° 0,1 mm 1 m/s 636 mmHg 94%
    06:00 +18°C° 0,1 mm 1 m/s 636 mmHg 93%
    07:00 +19°C° 0,1 mm 1 m/s 637 mmHg 90%
    08:00 +20°C° 0,1 mm 1 m/s 638 mmHg 86%
    09:00 +21°C° 0,1 mm 1 m/s 639 mmHg 83%
    10:00 +22°C° 0,2 mm 1 m/s 639 mmHg 80%
    11:00 +23°C° 0,2 mm 1 m/s 639 mmHg 76%
    12:00 +24°C° 0,2 mm 1 m/s 639 mmHg 73%
    13:00 +24°C° 0,8 mm 1 m/s 638 mmHg 76%
    14:00 +23°C° 0,8 mm 1 m/s 637 mmHg 79%
    15:00 +23°C° 0,8 mm 1 m/s 636 mmHg 82%
    16:00 +22°C° 0,9 mm 1 m/s 636 mmHg 85%
    17:00 +21°C° 0,9 mm 1 m/s 636 mmHg 89%
    18:00 +20°C° 0,9 mm 1 m/s 636 mmHg 92%
    19:00 +19°C° 0,6 mm 1 m/s 637 mmHg 93%
    20:00 +19°C° 0,6 mm 1 m/s 637 mmHg 93%
    21:00 +19°C° 0,6 mm 1 m/s 637 mmHg 94%
    22:00 +19°C° 0,4 mm 1 m/s 637 mmHg 94%
    23:00 +18°C° 0,4 mm 1 m/s 637 mmHg 95%

    24 Outubro, Terça-feira

    Tempo Temperatura Precipitação Vento Pressão Humidade
    00:00 +18°C° 0,4 mm 1 m/s 637 mmHg 95%
    01:00 +18°C° 0,2 mm 1 m/s 636 mmHg 95%
    02:00 +18°C° 0,2 mm 1 m/s 636 mmHg 95%
    03:00 +18°C° 0,2 mm 1 m/s 636 mmHg 94%
    04:00 +18°C° 0,2 mm 1 m/s 636 mmHg 94%
    05:00 +18°C° 0,2 mm 1 m/s 636 mmHg 93%
    06:00 +18°C° 0,2 mm 1 m/s 636 mmHg 93%
    07:00 +18°C° 0,2 mm 2 m/s 637 mmHg 90%
    08:00 +18°C° 0,2 mm 2 m/s 638 mmHg 87%
    09:00 +19°C° 0,2 mm 2 m/s 638 mmHg 85%
    10:00 +20°C° 0,1 mm 2 m/s 638 mmHg 81%
    11:00 +21°C° 0,1 mm 2 m/s 638 mmHg 77%
    12:00 +23°C° 0,1 mm 2 m/s 638 mmHg 73%
    13:00 +23°C° 0,1 mm 2 m/s 637 mmHg 72%
    14:00 +23°C° 0,1 mm 2 m/s 637 mmHg 72%
    15:00 +23°C° 0,1 mm 2 m/s 636 mmHg 72%
    16:00 +20°C° 0,1 mm 2 m/s 636 mmHg 76%
    17:00 +19°C° 0,1 mm 2 m/s 636 mmHg 80%
    18:00 +18°C° 0,1 mm 2 m/s 636 mmHg 84%
    19:00 +18°C° 0,1 mm 2 m/s 636 mmHg 84%
    20:00 +17°C° 0,1 mm 2 m/s 637 mmHg 85%
    21:00 +17°C° 0,1 mm 2 m/s 637 mmHg 85%
    22:00 +17°C° 0,2 mm 2 m/s 637 mmHg 86%
    23:00 +17°C° 0,2 mm 2 m/s 637 mmHg 87%

    25 Outubro, Quarta-feira

    Tempo Temperatura Precipitação Vento Pressão Humidade
    00:00 +17°C° 0,2 mm 2 m/s 637 mmHg 87%
    01:00 +17°C° 0,3 mm 2 m/s 636 mmHg 87%
    02:00 +17°C° 0,3 mm 2 m/s 636 mmHg 87%
    03:00 +16°C° 0,3 mm 2 m/s 636 mmHg 87%
    04:00 +16°C° 0,3 mm 2 m/s 636 mmHg 87%
    05:00 +16°C° 0,3 mm 2 m/s 636 mmHg 86%
    06:00 +16°C° 0,3 mm 2 m/s 636 mmHg 86%
    07:00 +17°C° 0,2 mm 3 m/s 637 mmHg 85%
    08:00 +17°C° 0,2 mm 3 m/s 637 mmHg 84%
    09:00 +17°C° 0,2 mm 3 m/s 638 mmHg 84%
    10:00 +18°C° 0,2 mm 3 m/s 638 mmHg 82%
    11:00 +18°C° 0,2 mm 3 m/s 638 mmHg 80%
    12:00 +18°C° 0,2 mm 3 m/s 637 mmHg 79%
    13:00 +18°C° 0,1 mm 3 m/s 637 mmHg 79%
    14:00 +18°C° 0,1 mm 3 m/s 637 mmHg 79%
    15:00 +18°C° 0,1 mm 3 m/s 636 mmHg 78%
    16:00 +18°C° 0 mm 3 m/s 637 mmHg 80%
    17:00 +17°C° 0 mm 3 m/s 637 mmHg 82%
    18:00 +16°C° 0 mm 3 m/s 637 mmHg 84%
    19:00 +16°C° 0 mm 3 m/s 637 mmHg 84%
    20:00 +16°C° 0 mm 3 m/s 638 mmHg 84%
    21:00 +14°C° 0 mm 3 m/s 638 mmHg 84%
    22:00 +14°C° 0 mm 3 m/s 638 mmHg 84%
    23:00 +15°C° 0 mm 2 m/s 637 mmHg 84%
    Mostrar mais